Flag for Bahrain Weather past 2 weeks in Riffa, Bahrain

Now
99 °F

Sunny.


Feels Like: 108 °F
Forecast: 94 / 102 °F
Wind: 23 mph from Northwest

Location: Bahrain International Airport

Current Time: Jul 28, 2014 at 11:04:05 AM

Latest Report: Jul 28, 2014 at 10:00 AM


Visibility: 10 mi

Pressure: 29.56 "Hg

Humidity: 42%

Dew point: 72 °F

Location of RiffaLocation

Historic Weather in Riffa — Graph

°F

Riffa temperature yesterday

Maximum temperature yesterday: 102 °F (at 3:00 PM)
Minimum temperature yesterday: 91 °F (at 1:00 AM)
Average temperature yesterday: 97 °F

Past Weeks' High & Low Weather Summary

 TemperatureHumidityPressure
High106 °F (Jul 16, 12:00 PM)79% (Jul 18, 2:00 AM)29.62 "Hg (Jul 18, 2:00 AM)
Low90 °F (Jul 16, 1:00 AM)10% (Jul 16, 12:00 PM)29.33 "Hg (Jul 17, 4:00 PM)
Average96 °F43%29.46 "Hg
* Reported Jul 13 10:00 AM — Jul 28 10:00 AM, Riffa, Weather by CustomWeather, © 2014

Note: Actual official high and low records may vary slightly from our data, if they occured in-between our weather recording intervals... More about our weather records

Advertising

Riffa weather history for previous 24 hours

 ConditionsComfort  
Time TempWeatherWind HumidityBarometerVisibility
10:00 AM
Jul 28
99 °FSunny.23 mph42%29.56 "Hg10 mi
9:00 AM99 °FSunny.21 mph42%29.56 "Hg10 mi
8:00 AM97 °FSunny.20 mph47%29.56 "Hg10 mi
7:00 AM97 °FSunny.17 mph47%29.53 "Hg10 mi
6:00 AM95 °FSunny.17 mph47%29.53 "Hg10 mi
5:00 AM95 °FSunny.17 mph44%29.53 "Hg10 mi
4:00 AM95 °FClear.17 mph50%29.50 "Hg10 mi
3:00 AM95 °FClear.16 mph47%29.50 "Hg10 mi
2:00 AM95 °FClear.16 mph47%29.50 "Hg10 mi
1:00 AM95 °FClear.15 mph50%29.53 "Hg10 mi
12:00 AM97 °FClear.15 mph44%29.53 "Hg10 mi
11:00 PM
Jul 27
97 °FClear.15 mph39%29.56 "Hg10 mi
10:00 PM99 °FClear.15 mph35%29.56 "Hg10 mi
9:00 PM99 °FClear.13 mph35%29.56 "Hg10 mi
8:00 PM97 °FClear.13 mph34%29.56 "Hg10 mi
7:00 PM97 °FClear.18 mph42%29.56 "Hg10 mi
6:00 PM97 °FSunny.17 mph42%29.56 "Hg10 mi
5:00 PM99 °FSunny.18 mph39%29.56 "Hg10 mi
4:00 PM100 °FSunny.18 mph37%29.56 "Hg10 mi
3:00 PM102 °FSunny.18 mph33%29.56 "Hg10 mi
2:00 PM100 °FSunny.18 mph37%29.56 "Hg10 mi
1:00 PM100 °FSunny.17 mph37%29.59 "Hg10 mi
12:00 PM100 °FSunny.16 mph42%29.59 "Hg10 mi
11:00 AM99 °FSunny.14 mph47%29.62 "Hg10 mi
Weather by CustomWeather, © 2014

See weather overviewHow to use our weather pages